| time (UTC) | temp F | wind direction | speed MPH | gust MPH | rain 1hr in | rain 24hr in | rain mn in | humidity % | barometer mb |
| 20260504081557 | 58 | 182 | 2.0 | 7.0 | 0.00 | 0.00 | 0.00 | 82 | 1007.0 |
| 20260504080214 | 58 | 202 | 0.0 | 5.0 | 0.00 | 0.00 | 0.00 | 83 | 1006.8 |
| 20260504044554 | 62 | 0 | 0.0 | 2.0 | 0.00 | 0.00 | 0.00 | 70 | 1007.8 |
| 20260504043112 | 62 | 0 | 1.0 | 2.0 | 0.00 | 0.00 | 0.00 | 70 | 1008.2 |
| 20260504041551 | 62 | 0 | 0.0 | 2.0 | 0.00 | 0.00 | 0.00 | 70 | 1008.5 |
| 20260504040054 | 62 | 0 | 0.0 | 2.0 | 0.00 | 0.00 | 0.00 | 71 | 1008.6 |
| 20260504034554 | 62 | 190 | 0.0 | 2.0 | 0.00 | 0.00 | 0.00 | 70 | 1008.9 |
| 20260504033102 | 62 | 190 | 0.0 | 2.0 | 0.00 | 0.00 | 0.00 | 71 | 1008.9 |
| 20260504031556 | 63 | 0 | 0.0 | 1.0 | 0.00 | 0.00 | 0.00 | 70 | 1009.3 |
| 20260504030109 | 63 | 190 | 1.0 | 3.0 | 0.00 | 0.00 | 0.00 | 68 | 1009.1 |
| 20260504024553 | 63 | 0 | 0.0 | 2.0 | 0.00 | 0.00 | 0.00 | 69 | 1009.0 |
| 20260504023057 | 63 | 0 | 1.0 | 3.0 | 0.00 | 0.00 | 0.00 | 69 | 1008.9 |
| 20260504021555 | 63 | 191 | 0.0 | 1.0 | 0.00 | 0.00 | 0.00 | 71 | 1009.0 |
| 20260504020058 | 63 | 191 | 1.0 | 3.0 | 0.00 | 0.00 | 0.00 | 68 | 1009.0 |
| 20260504014554 | 65 | 0 | 0.0 | 1.0 | 0.00 | 0.00 | 0.00 | 67 | 1008.8 |
| 20260504013055 | 65 | 0 | 0.0 | 1.0 | 0.00 | 0.00 | 0.00 | 65 | 1008.5 |
| 20260504011553 | 66 | 360 | 1.0 | 3.0 | 0.00 | 0.00 | 0.00 | 62 | 1008.4 |
| 20260504010059 | 67 | 0 | 0.0 | 1.0 | 0.00 | 0.00 | 0.00 | 59 | 1008.5 |
| 20260504004555 | 68 | 0 | 0.0 | 2.0 | 0.00 | 0.00 | 0.00 | 57 | 1008.2 |
| 20260504003053 | 69 | 0 | 0.0 | 2.0 | 0.00 | 0.00 | 0.00 | 54 | 1008.4 |
| 20260504001558 | 70 | 0 | 0.0 | 1.0 | 0.00 | 0.00 | 0.00 | 54 | 1008.1 |
| 20260504000101 | 71 | 0 | 0.0 | 2.0 | 0.00 | 0.00 | 0.00 | 48 | 1008.5 |
| 20260503234556 | 72 | 360 | 1.0 | 9.0 | 0.00 | 0.00 | 0.00 | 47 | 1008.5 |
| 20260503233109 | 72 | 360 | 1.0 | 5.0 | 0.00 | 0.00 | 0.00 | 45 | 1008.6 |
| 20260503231555 | 73 | 360 | 1.0 | 9.0 | 0.00 | 0.00 | 0.00 | 44 | 1008.6 |
| 20260503230110 | 73 | 204 | 3.0 | 9.0 | 0.00 | 0.00 | 0.00 | 44 | 1008.3 |
| 20260503224552 | 73 | 290 | 4.0 | 11.0 | 0.00 | 0.00 | 0.00 | 43 | 1008.5 |
| 20260503223111 | 73 | 201 | 4.0 | 15.0 | 0.00 | 0.00 | 0.00 | 42 | 1008.6 |
| 20260503221556 | 74 | 207 | 4.0 | 14.0 | 0.00 | 0.00 | 0.00 | 41 | 1008.6 |
| 20260503220057 | 74 | 209 | 5.0 | 15.0 | 0.00 | 0.00 | 0.00 | 40 | 1008.8 |
| 20260503214558 | 74 | 217 | 8.0 | 17.0 | 0.00 | 0.00 | 0.00 | 40 | 1009.0 |
| 20260503213052 | 73 | 246 | 4.0 | 18.0 | 0.00 | 0.00 | 0.00 | 41 | 1009.0 |
| 20260503211551 | 72 | 214 | 8.0 | 17.0 | 0.00 | 0.00 | 0.00 | 40 | 1009.6 |
| 20260503210052 | 72 | 228 | 5.0 | 15.0 | 0.00 | 0.00 | 0.00 | 41 | 1009.5 |
| 20260503204554 | 71 | 198 | 4.0 | 15.0 | 0.00 | 0.00 | 0.00 | 43 | 1009.8 |
| 20260503203053 | 70 | 167 | 9.0 | 21.0 | 0.00 | 0.00 | 0.00 | 43 | 1009.9 |
| 20260503201555 | 70 | 186 | 5.0 | 15.0 | 0.00 | 0.00 | 0.00 | 43 | 1010.3 |
| 20260503200054 | 68 | 360 | 9.0 | 20.0 | 0.00 | 0.00 | 0.00 | 43 | 1010.5 |
| 20260503194606 | 67 | 360 | 4.0 | 20.0 | 0.00 | 0.00 | 0.00 | 45 | 1010.9 |
| 20260503193054 | 68 | 360 | 3.0 | 16.0 | 0.00 | 0.00 | 0.00 | 51 | 1011.0 |
| 20260503191601 | 66 | 360 | 5.0 | 19.0 | 0.00 | 0.00 | 0.00 | 48 | 1011.5 |
| 20260503190053 | 65 | 360 | 7.0 | 27.0 | 0.00 | 0.00 | 0.00 | 45 | 1011.2 |
| 20260503184557 | 65 | 360 | 7.0 | 27.0 | 0.00 | 0.00 | 0.00 | 46 | 1011.3 |
| 20260503183058 | 66 | 360 | 7.0 | 30.0 | 0.00 | 0.00 | 0.00 | 48 | 1011.3 |
| 20260503181605 | 64 | 360 | 7.0 | 20.0 | 0.00 | 0.00 | 0.00 | 50 | 1012.2 |
| 20260503180059 | 64 | 360 | 6.0 | 23.0 | 0.00 | 0.00 | 0.00 | 48 | 1012.5 |
| 20260503174604 | 65 | 360 | 8.0 | 22.0 | 0.00 | 0.00 | 0.00 | 46 | 1012.7 |
| 20260503173054 | 65 | 165 | 5.0 | 19.0 | 0.00 | 0.00 | 0.00 | 48 | 1013.6 |
| 20260503171554 | 64 | 360 | 6.0 | 19.0 | 0.00 | 0.00 | 0.00 | 50 | 1014.5 |
| 20260503170105 | 64 | 205 | 3.0 | 13.0 | 0.00 | 0.00 | 0.00 | 55 | 1014.9 |
| 20260503120104 | 45 | 190 | 2.0 | 6.0 | 0.00 | 0.00 | 0.00 | 83 | 1017.5 |